Regional Weather Roundup
Issued by NWS Goodland, KS

Home | Current Version | Previous Version | Text Only | Print | Product List | Glossary Off
Versions: 1 2 3 4 5 6 7 8 9 10 11 12 13 14 15 16 17 18 19 20 21 22 23 24 25 26 27 28 29 30 31 32 33 34 35 36 37 38 39 40 41 42 43 44 45 46 47 48 49 50

000
ASUS43 KGLD 021908
RWRGLD

GOODLAND FORECAST AREA HOURLY WEATHER ROUNDUP
NATIONAL WEATHER SERVICE GOODLAND KS
100 PM MDT MON MAY 02 2016

...OFFICIAL OBSERVATIONS...

CITY           SKY/WX    TMP DP  RH WIND       PRES   REMARKS
GOODLAND KS    SUNNY     59  30  33 N9G18     30.16F
HILL CITY KS   SUNNY     62  34  35 NW9G20    30.15F
IMPERIAL NEB   SUNNY     58  34  40 NW14      30.14F
MCCOOK NEB     SUNNY     61  37  41 NW8G16    30.13F
AKRON CO       SUNNY     51  27  39 NW5       30.18F
BURLINGTON CO  SUNNY     57  29  34 NW13G18   30.19F
LIMON CO       SUNNY     43  28  55 W10       30.22F
$$

...UNOFFICIAL OBSERVATIONS...

CITY           SKY/WX    TMP DP  RH WIND       PRES   REMARKS
COLBY KS       SUNNY     59  39  47 NW6       30.17F
LENORA KS        N/A     58  32  37 MISG        N/A
NORTON KS      SUNNY     59  32  36 W3G16     30.13F
SHARON SPRINGS   N/A     56  34  44 NW6G15      N/A
KIT CARSON CO    N/A     53  30  42 MISG        N/A
YUMA CO          N/A     55  35  46 NW8         N/A
$$




USA.gov is the U.S. government's official web portal to all federal, state and local government web resources and services.